Regional Weather Roundup
Issued by NWS

Home | Current Version | Previous Version | Graphics & Text | Print | Product List | Glossary On
Versions: 1 2 3 4 5 6 7 8 9 10 11 12 13 14 15 16 17 18 19 20 21 22 23 24 25 26 27 28 29 30 31 32 33 34 35 36 37 38 39 40 41 42 43 44 45 46 47 48 49 50
000
ASUS45 KBOI 011210
RWRID
WEATHER ROUNDUP FOR IDAHO
NATIONAL WEATHER SERVICE BOISE ID
600 AM MDT WED APR 01 2015

NOTE: "FAIR" INDICATES FEW OR NO CLOUDS BELOW 12000 FEET
WITH NO SIGNIFICANT WEATHER AND/OR OBSTRUCTIONS TO VISIBILITY

IDZ012-014-011300-
SOUTHWEST IDAHO


CITY           SKY/WX    TMP DP  RH WIND       PRES   REMARKS
BOISE          MOCLDY    38  31  76 W6        30.16R WCI  33
CALDWELL       CLEAR     37  23  56 W9        30.20R WCI  31
MOUNTAIN HOME  PTCLDY    35  28  77 NW8       30.16R WCI  28
$$

IDZ016-017-011300-
SOUTHCENTRAL IDAHO


CITY           SKY/WX    TMP DP  RH WIND       PRES   REMARKS
BURLEY         CLEAR     34  26  72 W16G28    30.09R WCI  24
JEROME         CLEAR     32  26  78 SW20      30.10R WCI  20
TWIN FALLS     CLOUDY    36  25  64 SW17G25   30.12R WCI  26
$$

IDZ019>023-011300-
SOUTHEAST IDAHO


CITY           SKY/WX    TMP DP  RH WIND       PRES   REMARKS
IDAHO FALLS    CLOUDY    34  24  67 SW24G35   29.98R WCI  21
POCATELLO      CLEAR     34  25  69 SW21      30.06R WCI  22
REXBURG        LGT SNOW  30  28  92 SW12      29.98R VSB 1   WCI  20
$$

IDZ006-010-011-018-031-032-011300-
CENTRAL IDAHO MOUNTAINS


CITY           SKY/WX    TMP DP  RH WIND       PRES   REMARKS
MCCALL         MOCLDY    28  25  88 E3        30.05S
HAILEY         CLEAR     32  18  55 W7        30.02R WCI  26
STANLEY          N/A     25  19  78 CALM      30.03R
SALMON         CLOUDY    34  25  69 CALM      30.02R
CHALLIS        MOCLDY    33  17  51 CALM      30.01R
$$

IDZ002-004-006-007-026-011300-
NORTHERN IDAHO


CITY           SKY/WX    TMP DP  RH WIND       PRES   REMARKS
LEWISTON       CLOUDY    44  31  60 CALM      30.14R
LOWELL           N/A     40  38  93 CALM      30.15R
COEUR D`ALENE  PTCLDY    34  25  69 SW6       30.08R WCI  29
MULLAN PASS    CLOUDY    21  20  96 SW10G16   29.92S WCI  10
$$



USA.gov is the U.S. government's official web portal to all federal, state and local government web resources and services.